Thule Sermersua

KL  EN  DA
ASIAQ
Weather Now GREENLAND SURVEY
Updated [WGT/WGST] Temperature [°C] Wind [m/s] Air pressure [hPa] Relative humidity [%] Precipitation [mm]
Present Wind chill Speed Max
12.05 17:00-11,3-22,912,4 ⇖n/a94975n/a
12.05 16:00-11,3-23,112,9 ⇖n/a94975n/a
12.05 15:00-11,3-23,513,6 ⇖n/a94975n/a
12.05 14:00-11,6-24,214,6 ⇑n/a94877n/a
12.05 13:00-11,6-23,713,3 ⇑n/a94877n/a
12.05 12:00-11,4-21,89,2 ⇑n/a94875n/a
12.05 11:00-11,4-21,07,7 ⇑n/a94974n/a
12.05 10:00-11,7-20,96,9 ⇑n/a94874n/a
12.05 09:00-12,0-20,76,0 ⇑n/a94977n/a
12.05 08:00-12,3-20,45,2 ⇑n/a94982n/a
12.05 07:00-12,5-19,03,4 ⇑n/a94985n/a
12.05 06:00-12,5-18,93,3 ⇑n/a94985n/a
12.05 05:00-12,5-20,24,6 ⇖n/a94882n/a
12.05 04:00-12,7-20,64,8 ⇑n/a94886n/a
12.05 03:00-12,7-20,84,9 ⇑n/a94887n/a
12.05 02:00-12,5-19,74,1 ⇑n/a94884n/a
12.05 01:00-12,3-19,54,1 ⇑n/a94883n/a
12.05 00:00-12,0-19,24,2 ⇗n/a94882n/a
11.05 23:00-11,8-18,33,6 ⇗n/a94880n/a
11.05 22:00-11,5-17,93,4 ⇗n/a94879n/a
11.05 21:00-11,4-18,13,8 ⇗n/a94879n/a
11.05 20:00-10,7-17,54,0 ⇗n/a94877n/a
11.05 19:00-10,3-18,05,3 ⇗n/a94976n/a
11.05 18:00-9,9-18,06,0 ⇑n/a94973n/a
11.05 17:00-9,8-17,95,9 ⇑n/a94972n/a
Position: (76.3998,-68.2665)

[Back]